Flag for Norway Weather past 2 weeks in Vadsø, Norway

Now
32 °F

Passing clouds.


Feels Like: 23 °F
Forecast: 20 / 31 °F
Wind: 12 mph from Northwest

Location: Vadso

Current Time: Mar 5, 2015 at 3:37:10 PM

Latest Report: Mar 5, 2015 at 2:50 PM


Visibility: N/A

Pressure: 29.95 "Hg

Humidity: 87%

Dew point: 28 °F

Location of VadsøLocation

Historic Weather in Vadsø — Graph

°F

Vadsø temperature yesterday

Maximum temperature yesterday: 34 °F (at 12:20 AM)
Minimum temperature yesterday: 32 °F (at 2:20 PM)
Average temperature yesterday: 33 °F

Past Weeks' High & Low Weather Summary

 TemperatureHumidityPressure
High37 °F (Mar 1, 9:50 PM)100% (Feb 20, 4:50 PM)29.95 "Hg (Feb 20, 4:50 PM)
Low10 °F (Feb 23, 8:50 PM)65% (Mar 2, 9:50 AM)28.91 "Hg (Feb 20, 3:50 PM)
Average31 °F83%29.44 "Hg
* Reported Feb 18 1:50 PM — Mar 5 1:50 PM, Vadsø, Weather by CustomWeather, © 2015

Note: Actual official high and low records may vary slightly from our data, if they occured in-between our weather recording intervals... More about our weather records

Advertising

Vadsø weather history for previous 24 hours

 ConditionsComfort  
Time TempWeatherWind HumidityBarometerVisibility
1:50 PM
Thu, Mar 5
34 °FScattered clouds.13 mph87%29.95 "HgN/A
12:50 PM34 °FPassing clouds.13 mph87%29.95 "HgN/A
11:50 AM32 °FPassing clouds.15 mph87%29.92 "HgN/A
10:50 AM32 °FScattered clouds.13 mph87%29.92 "HgN/A
9:50 AM32 °FPartly sunny.7 mph87%29.92 "HgN/A
8:50 AM32 °FScattered showers. Broken clouds.9 mph93%29.89 "HgN/A
7:50 AM30 °FScattered showers. Broken clouds.7 mph93%29.89 "HgN/A
6:50 AM30 °FBroken clouds.N/A93%29.89 "HgN/A
5:50 AM30 °FScattered showers. Broken clouds.7 mph93%29.89 "HgN/A
5:20 AM30 °FSnow flurries. Broken clouds.6 mph93%29.86 "HgN/A
12:50 AM32 °FPassing clouds.6 mph93%29.83 "HgN/A
11:50 PM
Wed, Mar 4
32 °FPassing clouds.6 mph93%29.83 "HgN/A
10:50 PM32 °FPassing clouds.6 mph93%29.80 "HgN/A
9:50 PM32 °FPartly cloudy.5 mph100%29.80 "HgN/A
8:50 PM32 °FLight snow. Passing clouds.3 mph100%29.80 "HgN/A
7:50 PM32 °FLight snow. Fog.3 mph100%29.80 "Hg2 mi
6:50 PM32 °FLight snow. Fog.3 mph100%29.80 "Hg2 mi
5:50 PM32 °FLight snow. Fog.7 mph100%29.80 "Hg2 mi
4:50 PM32 °FSnow. Dense fog.12 mph100%29.80 "Hg2 mi
3:50 PM32 °FRain. Passing clouds.7 mph100%29.80 "Hg2 mi
Weather by CustomWeather, © 2015

See weather overviewHow to use our weather pages